Theta_e
287 288 288 289 288 287 287 287 287 286 287 286 284 284 286 286 282 280 286 287 285 287 290 292 293 294 294 295 296 296 296 296 296 294 290 289 290 290 287 289 290 290 290 291 291 290 289 289 288 287 287 287 286 286 287 286 286 286 286 285 284 284 284 284 283 283 282 281 280 280 278 277 277 276 276 276 275 274 274 274 274 273 273 272 272 272 271
286 287 287 288 287 286 287 286 287 287 287 286 286 286 287 286 285 287 287 287 287 290 291 293 294 296 296 296 297 297 295 295 296 295 294 294 292 286 288 290 290 291 291 292 291 290 289 289 288 288 287 286 286 286 286 286 285 286 285 285 284 284 283 283 283 282 281 280 279 278 277 276 276 275 275 274 274 273 273 273 272 272 272 272 272 272 271
284 286 287 287 287 286 285 286 287 287 287 287 287 287 287 287 286 287 287 286 286 291 294 294 296 297 297 297 296 296 296 296 296 295 295 294 294 290 289 291 291 291 291 290 290 290 290 290 289 289 288 287 286 286 286 285 285 285 285 284 284 284 283 283 282 281 280 278 278 277 276 276 275 275 274 273 273 273 272 272 272 272 272 272 271 271 271
280 286 285 285 286 285 284 285 286 286 286 284 286 285 287 286 284 286 286 284 285 290 294 294 295 295 295 294 295 295 296 296 296 295 294 293 291 291 291 291 291 291 290 290 290 291 291 291 290 289 288 287 285 285 285 284 285 284 284 284 284 283 283 282 281 279 279 277 276 276 275 275 274 274 273 273 272 272 271 271 271 271 270 270 270 270 270
280 286 286 285 285 283 280 281 285 287 287 288 289 289 290 289 289 285 283 284 290 292 293 292 293 293 294 294 294 295 295 296 296 295 295 295 293 292 292 291 291 291 290 291 291 291 291 291 291 290 289 287 285 285 284 284 284 283 283 283 283 282 281 280 279 279 277 276 276 275 275 274 274 273 272 272 272 271 270 270 270 269 270 270 270 270 270
281 286 285 286 282 275 276 288 291 290 287 288 286 286 288 290 290 288 290 290 292 293 292 292 292 292 293 294 296 297 295 295 295 295 295 294 293 293 292 291 291 291 291 291 292 291 292 291 291 291 290 289 288 286 285 283 283 283 283 282 282 281 280 279 278 278 277 276 276 275 274 274 273 272 272 271 271 270 270 269 269 269 269 269 270 270 270
280 285 285 280 275 276 287 291 292 292 292 291 289 289 290 290 291 291 290 291 291 293 293 294 294 295 296 297 296 295 294 294 295 295 295 295 292 291 291 291 290 291 292 292 291 290 289 289 289 289 288 287 286 282 282 282 282 282 282 281 281 280 279 279 278 277 277 276 275 274 273 273 272 271 271 271 270 269 269 269 269 269 269 269 270 270 270
284 281 280 274 275 284 284 290 291 292 292 291 289 286 289 290 291 291 289 291 292 293 293 294 295 295 296 296 296 295 296 296 295 294 295 296 296 295 294 294 293 292 291 291 291 291 291 289 288 288 289 287 284 283 282 282 281 281 281 281 280 280 279 278 277 277 276 275 274 273 273 272 271 271 271 270 269 269 269 269 270 270 270 270 270 270 271
278 279 280 279 285 285 284 285 285 287 285 285 285 281 285 290 291 291 290 290 292 292 293 294 294 295 294 292 293 296 294 293 293 293 293 294 295 295 295 293 293 294 293 292 292 291 291 290 289 289 288 284 283 281 280 281 280 280 281 280 280 279 279 278 277 276 276 274 273 272 272 271 271 270 270 269 269 269 268 269 269 269 269 270 270 269 269
285 278 277 279 278 275 281 289 290 293 292 292 291 287 284 288 285 288 288 288 290 289 288 288 289 290 288 287 289 290 290 291 291 291 292 291 291 292 292 293 291 290 290 290 290 290 290 289 289 288 284 283 282 281 280 279 279 279 279 280 279 279 278 277 276 275 275 274 273 272 271 271 271 271 270 270 269 269 268 268 268 269 269 269 269 269 269
282 280 277 276 275 278 286 287 291 292 292 292 290 284 281 284 284 287 285 283 284 284 284 285 286 285 283 283 285 288 289 288 289 289 289 289 290 290 291 290 290 291 291 290 289 288 288 288 286 282 282 282 281 280 280 278 279 278 278 279 279 278 278 277 276 275 275 274 273 272 271 271 271 270 269 269 269 269 269 269 268 269 268 268 268 268 268
281 279 277 275 281 279 280 281 284 288 289 291 284 275 276 283 285 285 284 282 282 282 283 284 283 281 278 280 283 286 287 287 286 287 287 287 288 289 290 290 289 289 289 288 287 286 286 286 281 281 281 282 281 280 279 278 277 278 278 279 280 279 278 276 275 275 275 274 273 272 272 271 271 270 270 269 268 269 269 269 268 268 268 267 267 267 267
280 280 278 281 282 284 279 280 284 284 286 285 277 272 278 284 284 284 283 281 281 281 281 281 279 281 283 284 285 285 285 284 284 285 286 286 287 288 289 290 289 289 289 287 287 286 284 280 279 280 280 281 281 280 278 278 278 279 280 279 278 277 277 275 274 274 274 274 273 272 272 271 270 269 269 268 268 268 268 268 267 267 266 266 266 266 267
278 279 278 278 282 280 281 282 285 284 284 279 273 277 282 284 282 283 283 281 281 281 281 280 280 282 283 283 283 283 283 283 283 284 284 285 286 287 288 289 289 290 289 288 288 285 280 278 278 278 279 280 279 277 277 277 279 280 278 277 277 276 276 275 274 274 273 273 272 271 270 270 269 269 269 268 268 267 267 266 266 265 265 265 265 265 266
280 280 277 276 273 279 283 281 280 282 273 272 280 282 285 285 283 282 282 282 280 282 280 281 281 281 282 282 282 282 283 283 283 283 283 284 285 286 287 288 289 289 289 289 289 285 280 278 279 280 280 280 279 277 277 279 279 277 277 276 276 276 275 274 273 273 272 272 271 271 270 269 269 268 267 266 266 266 265 265 265 265 265 265 264 265 265
272 272 273 272 276 278 284 281 274 279 280 283 284 284 282 283 282 281 281 280 281 282 281 280 281 281 282 282 283 283 283 284 284 283 284 284 285 286 287 287 288 288 288 289 289 287 279 279 279 281 282 282 280 278 279 278 277 276 276 275 275 274 274 273 272 272 271 271 271 270 270 269 268 267 266 265 265 265 265 265 264 264 264 264 265 265 265
274 271 276 278 280 281 283 284 281 281 283 284 285 285 283 280 280 283 280 280 281 281 281 281 281 281 282 282 283 283 283 284 284 284 285 285 285 285 285 286 287 287 288 288 288 288 284 279 279 280 282 283 282 280 280 277 277 276 275 274 274 273 272 272 271 271 270 270 269 269 268 268 267 266 265 265 264 265 264 264 264 263 264 265 265 265 265
280 281 281 280 280 280 280 282 282 281 282 285 284 283 280 281 282 282 280 281 281 281 282 281 281 282 282 282 283 283 284 284 285 285 286 286 287 287 287 287 288 288 288 287 286 285 286 281 279 279 280 282 282 283 278 277 277 276 274 273 273 272 271 271 270 269 269 268 268 268 267 268 267 266 265 264 264 264 264 264 264 264 264 265 265 265 265
273 268 278 277 278 280 280 280 281 284 285 285 283 280 281 281 282 281 281 281 281 281 282 281 281 281 282 282 283 283 284 284 284 284 284 285 286 286 286 287 288 288 287 287 286 286 285 284 279 279 280 281 283 279 276 277 276 275 273 273 272 270 270 269 268 268 268 267 266 266 266 267 266 266 265 265 265 264 264 264 264 265 265 265 265 265 265
272 271 277 278 280 280 280 279 278 279 281 281 280 280 280 280 280 281 281 282 280 280 279 279 279 280 281 281 281 281 281 281 282 282 283 284 284 285 286 287 287 287 287 287 287 287 287 287 284 281 280 280 281 278 276 276 274 273 272 272 271 269 269 268 267 266 266 265 265 265 266 266 265 265 264 265 264 264 264 265 265 265 265 265 265 265 265
274 276 277 278 279 277 277 278 278 279 279 278 278 279 279 279 279 280 279 279 278 279 278 279 279 279 279 280 280 280 280 280 281 281 282 283 284 284 285 286 286 286 286 286 286 286 286 287 285 282 281 281 280 278 276 274 273 272 272 270 270 268 267 266 265 266 266 265 265 265 265 265 265 265 265 265 265 265 267 268 267 267 266 266 266 267 266
268 269 273 275 270 270 275 276 277 277 278 277 277 277 277 277 277 277 276 277 278 278 278 278 278 277 278 278 279 279 279 280 280 281 281 282 282 283 284 285 285 285 285 285 285 285 286 287 285 282 281 281 279 278 275 273 272 272 271 269 268 267 266 266 265 265 265 265 265 265 265 264 264 264 267 269 267 266 267 270 271 271 271 267 267 267 266
269 274 275 276 275 274 275 276 277 277 277 276 275 275 275 276 276 276 276 275 275 275 276 277 276 276 277 277 278 277 278 279 279 280 280 280 281 281 282 282 283 283 284 284 285 285 285 285 285 284 282 281 278 276 274 273 273 273 271 269 268 266 265 265 265 265 265 265 264 264 264 264 264 264 265 268 271 270 270 271 272 272 272 272 272 271 267
276 277 276 274 273 273 276 275 275 275 275 274 273 275 275 274 274 275 274 274 273 273 273 274 275 275 275 276 277 276 277 277 278 278 279 279 280 280 281 281 281 282 282 283 283 284 285 285 285 285 284 282 279 276 274 273 272 273 271 270 268 267 266 266 265 265 265 265 265 264 264 264 264 264 265 265 267 271 272 273 273 274 273 274 273 272 271
274 277 274 274 274 275 275 274 273 274 273 272 271 271 272 272 272 273 272 272 272 272 271 271 272 274 274 274 275 275 275 275 276 277 277 278 278 278 278 279 279 280 281 282 283 284 285 285 286 285 284 283 280 275 273 272 272 272 271 271 270 268 267 266 265 265 265 264 264 264 264 263 263 265 265 265 265 266 270 274 275 274 274 274 274 273 273
275 272 271 272 271 273 274 272 272 272 271 271 270 270 271 272 271 271 270 270 270 270 270 271 271 272 273 272 273 273 273 273 274 275 274 274 274 275 275 276 277 279 279 280 281 282 283 284 284 285 284 283 280 276 273 272 272 272 272 271 271 270 267 266 265 265 265 264 264 264 264 264 264 265 266 266 266 267 267 268 270 273 274 274 274 274 273
269 271 270 271 273 275 271 269 269 270 269 269 269 269 270 269 270 269 269 268 268 269 269 270 271 271 271 271 271 271 270 271 271 271 271 271 272 272 274 275 276 277 277 278 278 279 280 280 281 282 283 283 282 276 273 272 272 272 272 271 271 269 267 266 266 265 265 264 264 264 264 264 265 265 266 266 267 267 267 267 267 267 268 270 273 274 271
269 269 269 266 268 269 269 270 269 268 268 268 268 268 268 268 266 265 265 265 267 268 268 268 268 267 267 268 268 267 268 267 267 268 268 269 270 272 272 272 272 273 273 274 275 276 277 278 280 281 282 283 282 276 273 271 271 271 272 271 270 269 267 266 266 266 265 264 264 265 265 265 265 266 266 266 266 267 267 268 267 266 267 268 269 273 274
267 266 267 267 267 268 268 268 267 267 266 267 267 267 265 263 263 263 264 265 266 266 266 266 267 267 266 266 266 265 265 266 266 266 266 267 268 268 269 269 269 270 270 271 272 273 274 275 277 278 280 282 279 274 272 271 270 271 271 270 269 269 267 266 265 265 265 264 264 265 267 266 266 266 266 266 266 267 266 266 265 265 264 262 265 268 268
264 264 264 264 265 266 265 263 264 264 264 265 264 264 264 262 262 263 264 264 264 264 265 265 265 264 265 264 264 264 263 263 264 264 265 265 266 266 266 266 267 267 268 269 270 272 273 274 275 276 278 280 278 272 270 269 270 270 270 269 269 269 267 266 265 265 264 264 265 267 266 265 266 266 265 265 265 265 265 264 263 262 262 263 265 262 262
261 261 261 262 264 263 262 262 263 263 263 263 263 262 262 262 262 262 262 263 263 263 263 263 262 262 262 262 263 263 263 263 263 263 263 263 264 264 264 265 264 264 265 267 269 270 271 272 273 274 276 278 271 269 269 268 269 268 268 268 268 268 268 267 267 264 264 264 265 265 265 265 265 265 264 264 264 264 264 262 262 261 261 262 261 261 261
259 259 260 262 262 260 260 260 261 261 261 261 260 260 260 260 259 260 260 261 261 261 261 261 260 260 261 261 261 261 261 261 261 261 262 262 262 263 264 264 265 267 267 268 269 271 272 273 274 275 277 277 274 269 268 268 268 267 267 266 267 266 267 267 266 265 264 264 265 265 264 264 264 264 263 263 263 263 262 261 260 260 260 260 259 259 258
256 257 259 258 257 258 258 259 258 258 259 258 259 260 260 260 260 260 260 260 260 260 260 259 260 260 260 260 260 259 259 260 260 260 261 261 262 263 264 266 266 267 267 268 269 269 270 270 271 273 275 276 274 270 269 269 269 269 268 267 267 266 266 268 266 265 264 264 264 264 264 264 264 263 262 262 262 262 261 260 259 259 259 259 259 257 257
256 256 257 257 257 256 256 257 258 258 258 259 259 259 259 259 259 259 259 259 258 258 258 258 259 259 259 259 259 259 259 259 259 259 260 261 262 263 264 265 266 267 268 268 269 270 270 271 273 273 274 275 274 270 269 269 269 269 269 268 267 266 266 266 266 265 264 264 264 263 263 263 263 262 261 261 261 261 260 259 258 258 258 257 257 256 260
259 258 258 258 258 258 258 258 257 257 257 256 257 257 258 258 258 257 258 258 257 257 258 259 258 259 259 258 258 258 259 259 259 260 261 262 263 264 265 266 266 267 268 268 269 270 271 272 273 274 274 275 274 270 269 268 269 269 268 268 267 266 266 266 265 264 264 264 263 263 262 262 261 260 260 260 260 259 259 258 258 257 257 256 256 256 260
257 257 257 257 257 256 256 256 256 256 256 256 256 256 256 256 256 256 256 256 257 258 258 258 258 258 258 258 258 258 258 259 260 261 262 263 264 265 266 266 266 267 267 268 270 271 272 273 271 270 273 274 271 269 268 268 269 269 268 267 267 266 265 265 265 264 264 263 262 262 262 261 260 260 259 259 259 259 258 258 257 257 256 256 256 255 257
257 256 256 255 255 255 255 255 255 255 255 255 255 255 255 255 255 256 257 257 257 257 257 257 257 257 257 258 259 259 260 261 262 263 263 264 264 265 266 266 266 265 265 265 269 273 274 276 271 269 271 273 270 268 267 266 268 268 267 267 266 265 265 264 263 263 262 262 262 261 260 259 259 259 259 259 259 258 258 257 256 256 256 256 256 256 255
255 255 254 254 254 254 254 254 254 254 254 254 254 255 255 255 255 256 256 256 257 257 257 257 257 258 258 259 260 260 261 262 261 261 262 263 264 264 263 263 263 264 263 264 267 268 268 268 266 268 270 270 268 267 266 265 266 267 267 266 266 265 264 263 262 261 261 261 261 260 259 259 258 258 258 259 258 257 257 256 256 255 255 255 255 255 254
253 254 254 254 254 253 253 254 254 254 254 253 253 254 255 255 256 256 256 256 257 258 257 257 258 258 258 259 260 260 260 261 261 262 262 262 262 262 261 261 261 262 263 264 263 262 263 264 266 268 268 268 267 267 265 264 265 267 266 266 265 264 263 262 261 261 261 260 260 259 259 258 258 258 258 257 257 256 256 256 255 254 254 254 253 253 252
252 252 252 253 252 253 253 253 253 253 253 254 253 253 254 255 255 255 256 256 257 258 258 258 258 258 259 259 258 258 259 260 261 260 260 260 260 259 259 259 260 261 261 260 260 260 261 262 263 266 267 267 266 265 265 265 265 266 265 264 263 263 262 262 261 260 259 259 259 258 258 258 257 257 257 256 256 255 255 254 254 253 253 253 253 252 251
251 252 252 252 252 253 252 252 252 253 253 253 253 254 255 255 256 256 256 256 257 258 258 258 258 259 259 258 258 258 258 259 259 259 259 258 257 257 256 255 257 259 258 259 259 260 261 262 263 264 264 265 265 264 265 264 265 265 264 263 263 262 261 261 260 259 259 259 258 258 258 257 257 256 256 256 255 255 254 254 253 253 253 252 252 251 251
252 252 252 252 252 252 252 253 253 252 253 254 254 255 256 257 257 256 257 258 258 258 258 259 260 259 259 259 258 257 257 257 258 258 257 256 255 255 254 255 257 258 259 260 260 261 262 262 263 263 264 264 264 263 263 264 264 263 263 262 262 261 261 260 259 259 259 259 259 258 257 256 256 256 255 254 254 254 254 253 253 253 252 252 252 251 251
252 252 251 252 252 252 252 252 252 252 253 254 256 256 257 257 257 257 257 257 257 257 258 258 259 259 258 257 256 255 255 256 256 256 256 256 257 257 256 256 258 258 259 260 260 261 261 261 262 262 262 263 263 262 262 263 263 262 262 262 261 261 260 260 259 259 259 258 257 256 256 255 255 254 254 253 253 253 253 253 252 252 252 252 251 251 251
252 252 251 251 251 252 252 253 253 254 254 255 256 257 257 257 257 257 256 256 256 257 256 256 256 256 256 255 255 254 254 255 255 255 255 255 256 257 258 257 258 258 259 259 259 260 260 260 261 261 261 261 261 261 263 262 262 261 261 260 260 259 259 259 259 258 257 256 256 256 256 255 255 254 254 253 253 253 253 253 253 253 252 251 251 251 250
251 252 252 252 252 253 253 253 254 254 255 256 256 257 257 256 256 256 256 256 256 255 255 255 255 255 255 255 254 255 255 256 256 255 254 253 253 254 257 258 258 258 258 259 259 259 260 260 260 260 260 260 260 260 261 260 260 260 259 259 259 258 258 258 258 257 257 256 256 256 256 255 255 254 254 254 253 253 253 253 252 252 251 251 250 250 250
252 252 252 253 253 253 254 254 255 256 256 256 255 256 256 256 256 256 256 255 254 254 255 255 255 255 255 255 255 255 255 256 256 255 255 255 254 255 257 257 257 258 258 258 258 259 259 259 259 259 259 259 259 259 259 259 259 259 259 258 258 258 258 257 257 257 257 256 256 256 256 255 255 254 254 254 254 254 253 252 252 252 252 251 251 250 250
252 252 253 253 253 254 254 255 256 256 255 254 254 253 255 255 255 255 255 255 255 255 255 255 255 255 255 255 254 254 254 254 255 255 255 256 257 257 257 258 258 258 258 258 258 258 259 259 259 259 259 259 259 259 259 259 259 258 258 258 258 257 257 257 256 256 256 256 256 255 255 255 255 254 254 253 253 253 252 252 251 251 250 250 249 249 249
252 252 253 253 253 254 255 255 255 254 254 253 254 254 255 255 254 254 255 255 255 255 255 255 255 255 255 255 255 255 255 254 252 253 255 255 256 256 257 257 257 258 258 258 257 258 258 258 258 259 259 259 259 259 259 258 258 258 257 257 256 256 256 256 255 255 255 255 255 254 254 254 254 254 254 253 252 252 252 252 251 250 250 250 250 249 249
253 253 253 253 254 255 255 255 254 253 253 254 254 254 254 254 254 254 254 254 254 254 254 254 254 255 255 255 255 255 255 256 254 253 255 256 256 256 256 257 257 257 257 257 257 257 258 258 258 258 258 257 257 257 257 257 257 256 256 256 255 256 255 255 255 255 255 254 254 254 254 253 253 253 252 252 252 251 251 251 251 250 250 249 248 247 247
253 253 253 254 254 254 254 254 253 253 254 254 254 254 254 254 253 253 254 254 254 254 254 254 254 254 254 255 255 255 255 255 256 256 256 256 256 256 256 256 256 257 257 257 256 257 257 257 257 257 257 257 257 256 256 256 255 255 255 255 255 255 255 254 254 254 254 254 254 253 253 253 252 251 251 251 251 251 251 250 250 249 249 249 248 248 247
252 253 253 255 255 255 255 254 254 254 254 254 254 254 254 253 253 253 253 254 254 253 253 253 254 254 254 254 255 255 255 255 255 256 255 255 256 256 256 256 256 256 256 256 255 255 255 255 255 255 255 255 255 255 255 254 254 254 254 254 254 254 254 254 254 254 253 253 253 252 252 252 251 251 251 250 250 250 250 249 249 249 249 248 248 248 247
253 254 255 256 255 255 254 254 254 254 254 254 254 254 253 253 253 253 253 254 254 253 253 253 252 254 254 254 254 254 255 255 255 255 255 255 255 255 255 256 255 255 255 255 255 255 255 255 255 255 255 254 254 254 254 254 254 254 254 254 253 253 253 253 253 253 253 252 252 252 251 251 251 251 250 250 250 250 249 249 248 247 248 248 248 247 247
Wind_Speed
18 21 20 22 22 20 21 22 21 23 21 18 17 20 21 18 18 23 18 18 21 21 22 25 27 29 30 29 25 19 17 16 17 16 11 11 14 11 7 10 11 11 12 13 13 12 12 11 11 13 11 11 10 10 10 10 11 14 13 13 13 13 14 15 15 15 12 11 10 11 12 12 12 12 12 11 10 10 10 10 9 10 9 10 10 10 8
20 22 22 23 25 22 21 21 22 23 23 24 22 24 24 24 24 22 21 23 28 24 21 23 27 27 26 24 22 19 17 22 23 19 16 19 15 6 9 12 13 14 16 15 12 11 11 12 13 13 12 12 12 13 13 12 13 12 12 14 14 14 15 16 13 11 11 10 11 11 12 13 13 12 12 11 11 11 10 9 9 9 9 9 7 7 9
18 22 22 24 24 24 24 23 23 23 22 23 25 23 20 20 22 23 28 28 28 21 24 25 23 23 20 21 25 28 29 28 25 23 21 16 13 11 12 14 14 14 13 12 11 12 14 14 15 15 14 14 12 12 11 12 13 12 13 14 14 15 16 13 11 11 11 11 12 13 13 12 12 13 13 11 11 11 10 11 11 11 10 11 10 9 8
15 16 21 24 22 25 26 25 23 24 25 26 24 20 19 19 25 27 27 22 20 22 25 24 24 24 25 26 29 29 27 27 23 19 17 13 10 12 13 14 13 12 11 11 13 15 16 16 15 13 12 12 10 13 13 13 12 11 13 13 15 14 13 11 12 13 12 13 13 13 13 13 13 13 12 12 12 11 11 10 9 8 10 10 9 9 8
16 13 19 21 22 20 21 23 25 31 30 27 22 22 22 24 23 23 19 22 21 24 18 19 19 23 26 27 27 27 29 26 21 19 19 18 12 12 13 13 13 14 14 15 16 17 15 15 14 15 15 12 13 15 13 13 10 12 14 14 14 13 12 13 13 13 13 15 14 13 14 13 12 12 13 12 12 12 13 11 9 11 11 10 10 9 8
12 12 18 15 17 21 20 16 29 28 29 27 27 25 26 29 22 21 21 24 21 20 17 20 23 24 25 24 25 21 15 14 18 20 18 13 11 13 12 12 14 15 14 13 14 15 16 15 15 16 13 15 16 14 12 9 13 13 14 13 13 13 13 13 14 14 14 14 14 14 13 13 13 14 14 15 13 11 10 10 11 10 10 10 9 9 8
9 11 15 16 23 20 6 8 16 25 29 28 29 30 29 28 27 29 27 25 23 25 23 22 24 24 24 23 20 12 9 11 15 19 18 15 11 12 12 12 12 13 14 14 14 13 12 14 12 9 9 10 7 5 9 12 12 13 13 13 12 13 14 13 13 13 15 14 14 13 13 14 14 14 15 13 13 12 12 13 14 14 13 12 11 10 9
8 6 8 15 12 4 1 8 16 20 24 25 24 25 22 24 26 27 27 25 25 24 25 24 22 23 24 20 15 13 15 15 15 16 18 20 19 16 13 13 12 12 13 15 15 16 13 9 8 8 11 9 8 9 9 12 12 13 13 13 14 12 13 14 15 15 14 14 14 13 14 14 15 15 15 15 16 12 11 10 8 9 7 8 8 10 9
15 12 15 21 11 14 5 4 5 10 12 9 15 20 21 24 24 23 24 23 23 22 22 22 21 19 18 15 12 10 11 18 20 19 19 20 20 18 14 11 13 14 14 14 15 12 8 8 9 10 9 7 8 8 10 10 11 11 12 13 14 15 14 14 14 14 14 15 15 15 15 16 16 16 16 14 13 11 13 12 10 10 7 8 9 11 11
12 15 15 14 13 16 13 15 8 12 17 19 19 17 18 8 18 18 14 14 13 14 15 16 14 8 9 12 8 9 18 16 18 18 17 19 20 19 18 17 11 9 8 9 11 9 10 9 10 7 6 9 10 10 10 10 11 12 13 15 14 13 13 13 14 14 14 15 16 16 17 19 19 16 15 13 14 14 16 15 12 11 9 12 11 9 9
10 15 14 12 9 7 1 7 11 17 15 17 12 7 12 8 14 16 16 18 17 16 17 17 16 12 5 6 9 12 17 17 14 15 16 16 17 16 15 15 15 14 12 10 9 8 7 9 7 5 7 10 10 10 10 11 11 12 14 13 13 15 16 15 15 15 15 16 16 17 18 18 17 18 18 17 14 12 12 12 13 13 14 13 11 6 6
14 14 13 11 4 4 10 16 15 17 10 6 2 11 4 7 8 13 16 16 15 15 15 14 12 12 10 11 14 18 18 15 13 11 14 17 17 17 17 16 13 12 11 9 7 5 7 8 2 6 7 9 10 11 10 9 10 12 14 16 16 11 10 12 12 13 14 16 16 17 17 15 14 15 12 11 13 13 11 11 11 13 15 10 9 8 7
16 19 17 11 9 3 12 14 18 20 9 5 7 7 9 12 9 12 13 13 13 14 11 10 11 10 6 10 15 16 16 16 18 15 13 13 13 13 15 16 15 13 13 10 8 6 7 3 0 3 5 6 8 8 10 11 13 17 16 11 9 11 11 11 12 14 13 15 17 15 13 14 12 10 10 13 13 13 13 10 13 13 8 8 7 8 8
13 15 18 17 7 4 10 15 11 17 9 9 4 12 17 6 12 14 10 14 13 13 10 9 9 11 13 12 12 15 15 14 15 14 14 14 16 16 14 15 13 14 13 13 12 9 5 1 0 2 4 5 4 4 7 11 18 11 5 8 9 10 13 13 13 13 13 11 12 12 11 12 13 13 10 12 13 14 11 12 14 12 7 7 7 7 7
9 8 12 13 12 4 17 13 11 12 9 9 10 13 9 4 11 14 15 11 13 12 14 15 13 13 14 12 12 14 16 16 16 17 16 15 14 15 16 18 17 13 13 15 13 7 2 0 2 3 4 5 5 5 9 14 3 5 7 8 9 10 11 13 14 15 14 16 15 13 14 14 15 13 11 12 11 12 13 13 13 11 8 8 8 8 7
5 5 5 1 6 9 4 9 3 9 6 8 10 9 7 9 9 12 12 13 12 11 14 15 17 16 14 14 12 13 15 16 16 14 14 13 13 13 13 10 11 11 13 13 13 10 2 2 3 3 6 5 5 7 15 3 4 5 7 9 9 10 10 11 11 12 12 13 12 12 14 14 14 14 14 13 13 12 12 13 12 10 6 7 7 8 9
5 5 8 12 15 4 2 1 6 10 12 7 4 4 7 11 14 7 10 14 13 12 12 14 14 15 14 13 13 14 15 17 17 18 17 15 14 15 15 14 13 10 13 14 13 12 9 4 4 5 6 9 7 11 6 4 5 7 7 9 10 11 11 11 12 11 11 11 12 12 12 14 15 13 14 14 14 12 12 11 12 11 7 8 8 8 8
8 11 8 12 13 12 13 14 5 8 8 1 5 6 11 8 7 10 9 9 12 11 11 12 13 11 13 16 15 13 13 13 14 15 15 15 13 12 12 13 14 12 13 12 11 11 12 5 4 3 4 3 8 7 3 5 5 6 8 9 9 11 10 10 11 11 12 11 10 11 13 12 14 14 16 15 14 13 11 10 11 11 9 7 6 7 7
12 14 10 11 7 15 18 16 8 2 6 7 5 8 6 8 9 7 5 6 7 8 8 11 13 15 14 13 14 13 12 13 14 15 16 17 16 14 15 14 14 14 12 12 12 11 12 8 4 6 6 7 8 1 5 6 7 8 9 10 9 8 10 9 9 11 13 12 11 11 12 11 10 11 12 13 14 11 9 8 7 9 9 9 7 6 7
10 13 11 14 16 15 12 10 13 9 5 7 6 4 5 6 6 5 5 6 7 9 10 10 11 14 14 13 14 15 14 14 14 15 14 16 17 15 11 13 12 11 12 13 14 13 13 12 6 7 8 9 9 5 5 7 9 10 11 12 13 12 11 10 10 11 11 13 14 12 12 13 13 11 11 12 11 11 13 12 12 11 11 11 11 11 10
11 14 13 14 13 10 14 13 7 9 8 3 3 3 4 6 5 7 7 7 9 10 11 11 12 12 14 14 13 15 16 15 14 14 14 14 15 16 15 12 10 11 12 14 13 14 14 11 8 6 9 10 7 8 8 8 10 12 11 11 10 11 11 10 10 10 10 12 12 12 12 12 10 11 14 14 9 4 10 12 15 15 14 11 10 10 11
11 9 9 6 11 13 14 11 6 2 3 3 3 4 4 5 6 8 9 10 9 9 10 12 11 13 15 16 15 15 15 15 16 16 15 14 14 14 13 13 13 14 13 13 14 15 15 12 8 8 10 10 8 9 7 8 10 12 11 10 10 11 11 11 11 11 11 11 12 12 13 13 11 8 7 9 12 14 12 12 12 8 10 10 12 12 11
13 12 11 10 13 14 10 12 7 5 3 5 7 6 4 4 4 6 8 11 12 12 11 10 13 13 14 17 16 16 14 16 15 16 17 17 17 16 15 14 14 14 15 14 15 16 15 13 11 11 10 9 8 9 10 10 12 12 11 11 10 9 10 11 13 14 13 12 12 12 12 13 12 10 8 9 17 16 11 13 13 14 12 11 16 14 11
18 17 16 7 4 11 14 7 2 1 3 3 3 6 8 7 7 7 7 8 11 12 12 10 10 13 14 14 14 15 17 16 16 17 17 18 17 17 15 14 15 16 16 15 15 15 14 13 13 13 12 10 9 10 10 10 12 12 13 13 13 13 14 13 13 13 12 14 14 14 12 12 13 11 9 11 10 13 15 15 15 15 14 17 18 17 15
16 12 4 2 6 9 6 3 1 1 3 4 4 5 6 10 9 7 10 11 10 11 12 15 13 10 11 13 12 13 15 16 16 17 18 18 19 18 17 17 17 16 16 15 14 14 14 14 14 13 13 13 9 8 10 12 12 13 14 14 13 12 12 12 13 14 13 13 15 15 15 15 13 15 9 10 12 12 12 16 18 17 17 18 19 18 18
6 4 5 3 4 7 4 5 4 2 8 8 10 10 11 8 10 11 9 9 10 12 12 13 15 13 10 11 12 13 14 16 18 18 16 17 17 17 18 18 19 16 15 15 16 16 17 18 18 15 14 13 10 10 11 12 13 15 16 16 16 13 13 15 14 13 13 13 15 14 14 15 16 15 14 14 14 15 15 13 13 14 18 19 19 19 18
6 3 5 9 10 12 1 2 6 9 8 7 7 11 11 11 11 11 13 12 11 10 11 12 12 12 11 10 12 10 12 16 16 16 15 17 19 19 18 16 17 17 18 17 18 19 21 20 18 17 16 15 12 10 12 14 14 15 15 14 12 11 13 12 12 13 13 14 13 14 14 15 14 14 14 13 14 16 17 17 16 15 12 12 16 19 15
4 5 5 1 7 7 10 10 6 6 7 7 9 10 12 12 12 13 16 17 15 13 13 12 12 13 16 14 12 14 12 14 15 17 17 16 16 15 18 18 19 17 19 17 20 18 21 19 19 18 18 16 13 10 13 15 16 17 16 15 13 10 11 14 12 11 12 14 14 14 15 14 13 13 12 12 13 13 13 14 15 14 11 10 10 17 22
5 5 5 4 7 10 10 9 9 10 11 10 8 8 7 10 14 13 15 14 13 13 15 16 12 12 13 16 14 16 16 16 16 18 17 17 15 16 15 17 16 17 18 20 20 19 18 19 19 20 20 17 11 10 13 14 15 15 14 13 12 11 11 12 13 11 11 13 13 14 11 11 12 11 11 11 10 11 11 12 12 11 12 10 10 9 8
6 6 7 6 8 7 7 9 11 12 11 9 10 12 9 7 12 15 15 16 14 14 16 15 14 15 13 15 16 15 15 17 15 18 17 20 18 17 15 15 16 19 18 19 19 16 14 16 16 18 18 17 11 8 10 13 14 15 15 15 14 13 12 12 11 11 12 13 14 15 13 12 11 11 11 12 12 12 12 12 14 14 13 11 10 12 14
10 6 7 9 3 5 7 10 11 11 11 10 11 13 14 10 11 14 17 17 16 16 16 14 15 17 15 14 13 14 14 16 14 16 16 19 17 19 16 16 14 18 19 20 19 20 18 19 18 19 20 18 6 8 11 12 11 11 10 10 11 11 12 15 14 13 12 12 13 14 13 13 13 13 12 12 12 12 12 12 13 12 11 11 10 9 9
16 14 2 2 5 8 9 6 9 11 13 13 14 16 14 12 15 18 19 18 17 17 18 19 18 16 17 16 14 15 15 15 17 18 18 18 18 18 16 17 17 20 19 20 19 19 16 18 19 20 17 15 11 10 10 11 10 10 12 11 11 10 12 19 12 14 13 14 14 14 13 14 14 13 12 12 13 13 13 13 13 12 11 11 10 9 8
12 15 15 14 16 15 15 10 4 11 13 16 16 14 13 12 12 13 14 16 17 16 16 16 16 16 15 15 17 16 17 15 17 18 21 18 17 13 14 12 16 18 20 18 21 19 20 19 22 18 18 17 13 10 12 13 13 12 11 11 11 10 11 15 14 13 13 14 14 15 14 14 13 13 13 12 11 10 11 12 12 12 11 9 8 7 7
6 5 8 8 6 11 15 22 19 17 16 15 16 15 15 15 14 14 15 14 15 19 17 18 16 17 17 17 17 15 16 16 16 16 17 17 17 18 16 15 16 17 19 20 20 16 15 15 15 17 19 17 16 12 13 13 12 11 11 11 11 11 12 12 15 14 14 14 13 14 13 13 14 13 12 12 11 11 11 12 11 11 10 8 7 6 10
8 10 10 12 10 10 11 14 16 17 17 19 21 19 17 16 15 16 17 18 19 17 17 17 18 17 17 17 14 17 15 20 19 21 18 20 17 19 16 19 17 18 18 20 17 17 15 17 18 19 18 19 17 14 13 15 14 11 12 13 13 12 12 12 14 15 15 14 13 14 13 13 12 12 13 14 12 11 11 11 12 11 11 10 9 8 9
10 10 10 10 10 10 12 13 14 16 16 17 18 19 20 20 20 20 20 19 15 14 15 16 16 17 17 17 16 17 16 17 16 18 20 19 18 14 18 19 19 20 20 21 21 12 16 17 20 21 18 15 12 12 13 13 13 11 11 11 11 11 11 12 12 12 11 13 13 13 12 13 13 13 13 12 12 12 12 12 11 10 10 10 9 10 6
9 11 12 12 12 11 13 13 13 14 16 17 18 19 21 22 20 19 19 18 17 16 16 17 18 18 18 16 17 16 18 15 14 13 16 15 20 18 17 14 19 21 22 23 18 9 12 12 13 17 17 13 11 11 12 16 11 10 11 11 11 12 12 12 12 12 12 11 12 12 13 13 12 12 12 12 13 12 12 11 10 10 10 10 9 8 6
10 11 13 13 14 14 14 13 13 16 19 23 20 16 18 20 20 19 19 19 18 17 16 17 17 18 18 17 17 17 15 14 18 16 19 16 16 18 21 16 16 14 16 18 18 17 15 18 25 21 14 10 8 9 12 19 15 12 11 12 12 12 12 13 13 12 13 13 12 13 13 13 13 13 11 10 11 12 11 11 11 11 10 10 8 7 7
14 10 10 11 12 13 14 14 12 12 13 19 21 19 16 18 20 20 19 19 17 17 17 18 18 18 19 18 16 13 18 16 18 18 19 16 17 14 16 13 16 17 19 17 15 16 16 18 16 15 13 11 9 7 12 16 16 11 10 10 12 12 12 12 13 13 13 13 13 13 12 12 13 14 12 10 11 10 10 12 12 10 10 9 9 8 7
13 13 13 13 13 13 13 14 13 13 13 13 16 20 19 18 18 18 18 18 17 16 17 17 17 18 16 13 15 14 14 16 18 15 17 15 16 17 15 13 13 12 12 19 16 13 17 21 17 13 9 7 8 8 10 16 14 10 10 11 11 11 12 13 13 14 14 14 15 14 13 13 12 11 10 11 11 11 10 11 11 10 10 8 8 7 7
14 15 15 14 15 13 13 14 16 15 14 16 15 16 16 17 17 18 18 18 18 17 17 17 16 15 14 14 14 14 15 16 17 15 13 14 14 12 11 13 11 11 12 11 12 12 12 9 6 4 1 4 5 9 11 15 11 9 10 11 11 12 12 12 13 13 14 14 13 13 13 13 12 12 10 10 10 11 10 10 10 9 9 9 8 7 6
15 15 15 15 15 14 14 15 15 16 15 14 16 16 16 15 17 18 19 18 18 17 17 16 18 19 17 15 14 14 16 16 15 13 12 12 14 11 11 11 10 10 15 16 12 10 8 7 5 3 3 5 6 13 14 11 10 10 10 11 11 12 12 12 12 11 11 11 12 12 11 14 16 12 11 11 11 10 10 9 9 9 9 8 8 7 7
15 17 16 16 15 16 15 15 15 17 17 16 15 15 16 15 14 15 15 16 17 17 17 15 16 17 15 14 13 13 12 12 11 12 12 11 11 6 8 10 10 9 16 10 10 8 7 6 5 5 7 8 10 15 14 10 10 11 11 11 11 11 11 11 11 11 10 10 11 11 10 12 13 9 11 14 13 10 10 12 12 11 10 10 9 8 6
16 15 14 15 16 16 16 16 16 16 16 16 15 15 14 13 13 15 16 17 18 15 14 15 14 13 13 13 13 11 10 10 9 9 9 9 8 6 9 8 8 10 14 8 6 6 6 6 6 12 15 16 16 15 10 10 10 10 11 11 11 11 11 11 11 11 11 11 9 7 9 11 9 8 9 9 8 8 8 7 6 6 7 9 7 7 6
15 14 15 16 17 16 15 14 16 17 16 16 16 14 13 13 13 13 15 16 14 14 14 13 12 12 11 11 10 9 9 8 7 8 9 9 9 9 10 9 9 7 9 10 7 7 7 8 13 17 16 19 19 17 11 11 11 11 11 11 11 11 11 11 11 11 12 12 12 11 10 9 9 9 7 9 10 9 8 8 6 8 9 9 9 7 6
15 14 14 16 16 16 15 16 16 15 16 16 15 13 11 11 13 13 13 13 14 13 11 12 11 12 12 12 10 10 8 6 7 8 7 7 7 7 9 10 7 8 12 13 8 9 11 18 20 20 21 21 19 14 12 12 12 11 12 12 11 11 11 10 10 11 11 10 11 8 7 7 8 7 7 6 7 8 9 9 8 6 5 7 6 6 6
14 15 15 15 17 17 17 16 14 14 14 13 12 11 11 12 13 11 11 14 14 12 10 10 10 11 11 12 11 9 8 6 6 8 8 8 8 8 10 12 12 15 12 10 10 10 10 14 17 21 21 21 18 12 11 12 11 11 11 11 11 12 12 11 9 7 9 9 11 11 11 11 10 8 7 8 8 8 9 9 8 8 7 5 6 6 6
16 17 17 19 21 21 17 14 12 11 11 10 11 11 10 10 12 11 11 10 13 11 8 8 9 9 11 11 10 10 9 7 6 8 8 7 7 7 8 8 10 13 14 14 16 18 23 22 22 21 20 17 13 11 12 11 11 11 11 10 9 8 7 8 7 7 9 11 12 9 9 8 8 8 9 11 11 8 7 8 8 7 6 6 6 6 6
17 19 19 18 15 14 13 10 9 10 9 9 11 9 10 10 10 9 9 10 12 8 8 9 10 10 10 10 10 8 8 7 6 6 7 7 7 7 8 10 14 14 11 11 12 12 19 23 22 22 21 16 12 11 11 11 12 13 11 9 9 9 10 9 9 8 8 10 10 10 10 11 11 11 12 9 8 8 7 7 7 7 7 6 6 5 5
14 12 10 9 10 10 9 9 8 8 9 9 8 8 9 9 8 9 8 9 9 9 7 7 8 8 8 7 7 8 8 8 8 8 8 9 9 9 9 9 10 14 14 10 11 11 15 20 20 19 15 12 12 12 12 11 10 9 9 9 9 8 10 11 11 13 11 10 10 9 10 11 11 9 9 8 7 7 6 7 6 6 8 6 5 5 5
10 8 9 9 8 9 10 9 8 9 7 8 7 8 8 8 8 9 8 9 8 8 8 7 7 8 7 8 8 8 8 8 8 8 7 8 8 10 11 9 11 10 11 12 11 11 11 12 12 12 13 12 9 8 8 9 9 9 8 8 9 9 8 9 8 6 8 9 9 9 9 8 7 7 8 9 8 7 6 6 6 6 6 5 5 5 5
12 10 8 6 7 7 7 7 7 6 6 7 6 7 7 7 7 7 7 11 8 6 7 7 7 8 7 7 8 7 8 8 7 7 7 8 8 7 9 11 10 11 11 11 11 11 11 11 11 13 14 9 6 7 10 13 9 10 10 10 9 8 9 8 8 9 8 9 9 9 8 7 8 10 10 9 7 7 7 6 7 6 6 5 5 5 5
Wind_Direction
231 238 242 245 246 240 241 243 246 247 243 239 234 235 236 234 235 250 249 245 249 247 241 247 251 256 263 266 272 273 270 270 262 255 250 248 246 242 221 235 236 236 237 237 233 230 227 227 226 223 219 219 216 217 216 198 190 194 182 182 187 188 191 196 199 196 183 176 173 166 164 163 165 167 167 165 162 161 165 166 166 166 165 161 157 156 153
228 231 232 234 239 241 242 239 243 243 244 245 236 241 239 238 246 254 260 257 254 252 250 243 247 251 260 269 276 279 273 265 262 260 251 251 253 225 230 231 230 229 232 234 237 234 235 229 227 225 220 216 210 209 206 197 194 191 171 187 184 188 192 198 195 184 176 168 166 162 163 168 167 164 163 162 161 161 164 162 157 157 159 165 158 144 143
233 231 230 233 231 235 240 238 240 240 246 248 245 248 251 260 261 258 255 252 256 253 251 254 258 260 267 271 272 270 268 266 265 268 266 263 267 244 226 232 232 231 232 238 240 239 239 235 228 225 220 216 212 210 207 198 194 184 181 184 189 189 195 191 180 172 166 167 162 169 169 163 163 163 163 161 161 162 161 161 163 164 164 162 160 159 149
238 226 230 232 231 235 236 241 241 245 243 245 244 246 241 241 249 249 251 251 253 253 250 252 256 262 260 260 259 262 266 270 272 273 277 273 245 242 232 230 231 232 233 231 232 234 236 235 232 227 224 218 205 211 204 198 191 176 182 186 188 192 187 174 173 171 170 164 168 170 165 169 166 165 159 160 163 163 160 160 163 159 164 166 160 158 161
233 220 226 230 235 240 236 229 234 239 240 241 246 243 243 239 242 250 249 247 241 248 248 254 252 249 251 253 255 259 260 267 281 283 274 268 247 239 233 227 227 229 227 226 227 232 234 234 231 227 221 211 208 211 198 199 167 174 184 186 185 182 179 176 175 172 167 169 170 169 172 165 162 159 160 162 163 163 169 166 156 164 166 161 165 164 165
249 218 236 234 241 230 225 202 217 220 233 236 240 242 241 243 233 242 234 247 250 254 250 246 248 249 248 246 248 251 264 278 274 271 268 264 247 239 237 227 224 228 228 230 233 234 235 232 224 225 214 209 215 206 192 168 172 181 179 184 180 181 176 178 174 172 170 169 172 171 165 162 162 163 165 170 168 165 155 155 163 164 165 167 167 169 169
247 237 239 239 228 240 230 208 207 214 225 232 238 242 238 243 245 249 252 249 247 247 246 246 247 250 254 257 260 267 258 252 263 271 277 276 245 237 235 234 227 229 230 233 238 242 241 234 229 225 227 218 212 156 160 172 180 174 181 177 179 178 179 178 171 172 172 171 169 166 165 163 164 167 169 165 164 166 166 168 170 172 171 171 175 172 171
262 231 221 244 242 123 286 188 200 210 224 230 245 257 256 256 250 249 250 249 248 247 249 251 253 253 256 265 272 277 274 274 283 287 284 280 277 266 259 256 248 234 232 231 229 234 233 226 228 212 222 204 177 185 167 173 174 178 175 177 181 177 180 179 177 174 169 169 167 165 166 166 168 170 172 171 169 167 165 168 150 139 165 167 158 166 167
239 236 230 243 272 272 183 161 216 189 215 214 222 249 248 241 249 250 255 256 258 257 256 257 261 265 269 270 279 285 345 358 357 349 334 319 308 299 286 264 255 248 235 226 226 227 232 219 218 220 213 167 169 152 165 173 171 174 174 181 185 185 184 176 174 172 171 168 168 168 169 169 173 174 172 171 170 165 165 170 161 171 161 162 156 163 148
218 249 252 257 245 244 245 231 221 211 211 213 223 229 261 20 7 8 340 313 317 330 345 349 325 299 290 278 276 18 359 358 350 343 346 348 344 337 324 313 302 284 268 242 239 229 235 235 224 209 165 160 154 164 169 168 168 177 181 191 187 182 181 176 174 171 171 169 170 172 173 178 178 176 173 171 173 172 171 168 171 170 146 141 143 135 151
243 243 248 243 249 260 111 264 235 229 222 224 241 280 267 30 1 21 31 32 27 22 7 356 2 26 18 348 339 340 349 337 337 339 335 343 341 338 343 340 331 318 310 297 268 252 245 245 234 152 154 152 155 170 173 172 175 176 192 191 183 186 185 176 172 171 172 173 175 176 181 182 176 174 176 177 172 171 174 169 168 161 134 143 133 142 153
240 256 261 265 251 313 2 344 345 322 300 268 7 260 212 21 17 19 22 27 24 14 3 357 9 20 357 334 322 324 320 322 318 319 328 333 336 333 335 338 335 322 325 334 317 291 249 248 158 153 152 160 169 168 172 160 171 193 197 198 195 181 166 168 171 170 173 175 177 179 182 177 178 177 169 163 170 171 170 166 161 153 141 148 147 152 156
256 255 260 268 278 32 12 348 340 332 311 69 214 240 358 337 356 18 12 12 5 2 353 9 349 333 305 289 293 301 304 311 317 321 324 322 321 322 328 328 333 340 338 340 323 320 324 333 126 138 148 153 176 172 161 172 192 203 202 181 163 169 163 163 169 175 175 179 179 181 177 173 167 163 170 169 164 169 166 164 153 119 148 142 139 150 161
244 253 256 255 273 96 4 350 7 353 332 257 8 326 295 311 358 357 5 350 349 342 338 328 319 301 297 290 292 299 305 308 307 313 316 320 322 323 323 323 332 334 332 333 326 338 3 12 43 140 149 172 179 164 174 195 208 204 140 159 160 160 169 174 173 173 174 174 171 166 162 159 167 173 171 171 171 166 161 159 160 147 141 149 145 153 156
292 262 262 253 245 38 24 346 6 39 51 288 289 298 311 46 3 341 334 332 333 338 323 318 304 301 302 301 301 303 308 313 316 318 320 320 321 320 323 325 325 331 328 324 322 317 319 240 153 185 167 182 178 177 201 224 192 133 161 152 161 165 166 171 175 174 173 170 170 169 170 170 166 164 160 165 170 168 162 161 160 156 150 149 149 152 153
289 288 267 234 47 320 342 31 340 321 294 271 284 279 319 330 337 333 318 320 322 324 319 314 311 307 307 307 309 310 310 313 315 314 315 314 316 316 309 306 307 322 318 314 312 316 270 181 191 189 191 193 194 195 226 176 143 148 150 162 156 166 172 174 170 173 171 169 168 168 167 164 165 161 165 167 168 171 169 163 161 151 151 154 154 150 158
327 273 312 312 319 359 195 48 297 302 300 279 257 291 311 332 323 315 316 306 311 316 308 302 303 306 308 310 314 317 316 317 317 318 319 321 319 318 318 317 320 318 309 305 306 305 292 231 225 208 201 200 198 221 231 138 169 166 162 159 165 169 173 172 172 168 163 167 169 167 167 166 166 166 164 164 168 175 168 169 166 163 159 164 160 155 154
270 260 256 285 304 312 309 303 312 314 304 197 199 286 308 289 285 293 289 307 308 312 313 312 309 308 310 315 318 317 316 314 313 314 318 321 324 322 323 324 321 316 312 309 307 303 302 292 255 269 261 241 220 236 105 149 149 159 156 163 172 177 170 170 168 159 160 162 164 168 169 176 174 171 168 170 171 171 172 172 172 167 157 160 147 160 163
313 287 320 293 301 304 305 305 317 241 219 214 259 308 303 301 298 305 311 317 327 322 331 333 323 318 320 319 317 319 320 321 318 318 318 316 318 323 321 318 319 318 318 312 308 305 301 295 241 243 227 231 237 235 163 152 154 155 164 170 170 167 172 167 161 162 166 167 165 169 175 175 175 171 173 174 172 166 162 159 154 161 155 157 154 168 155
263 280 293 303 299 279 276 305 313 313 278 297 326 335 325 334 345 337 346 348 339 331 327 319 315 311 311 315 316 314 313 311 310 308 307 308 308 309 308 308 311 310 308 305 301 297 290 287 265 242 238 239 233 207 166 168 161 162 170 177 177 177 172 169 169 173 173 168 167 172 179 177 174 174 180 181 175 176 171 164 153 161 168 170 174 169 157
291 287 279 261 271 293 296 293 302 302 317 15 8 354 1 353 355 346 343 338 319 321 311 310 308 304 308 308 308 307 307 306 304 303 302 302 301 304 309 309 308 305 304 301 297 290 285 281 272 243 242 239 227 207 192 175 169 172 182 180 173 167 167 165 174 177 177 176 179 174 176 182 186 182 178 182 177 91 174 171 171 166 169 177 181 173 160
275 274 287 307 302 296 300 300 289 330 33 43 349 339 355 347 343 335 327 318 311 306 311 313 315 313 310 312 312 307 303 303 304 304 302 300 301 302 304 308 307 302 297 293 292 289 284 281 267 245 245 237 217 212 187 179 176 181 179 173 172 177 174 175 173 174 179 180 181 180 177 177 165 163 184 184 177 176 172 180 185 196 192 184 171 158 156
274 271 267 275 282 287 270 281 318 99 82 12 348 330 318 312 315 317 320 315 317 314 315 323 314 308 308 307 309 306 305 302 303 302 303 306 306 304 304 305 303 297 295 294 291 286 283 282 274 261 252 236 211 204 193 186 184 186 172 176 182 178 177 188 185 180 179 180 183 181 179 172 171 160 147 166 174 181 172 170 173 171 167 164 155 151 146
264 273 277 280 255 275 289 309 36 41 38 49 335 316 316 316 326 328 319 310 307 308 306 305 303 301 300 300 303 302 302 301 303 305 304 304 303 303 304 300 297 297 295 291 288 287 287 283 278 271 262 250 220 202 191 187 188 187 185 181 187 191 191 189 178 183 185 183 177 176 177 175 173 165 150 147 158 171 167 166 161 158 155 154 150 147 148
260 271 305 242 256 274 285 308 270 153 49 15 340 307 312 319 322 330 318 313 307 301 302 301 299 288 288 295 299 297 297 299 299 300 303 302 300 300 300 298 295 293 293 292 291 290 289 285 278 270 262 257 234 200 193 190 189 192 194 195 198 195 190 184 184 186 184 182 178 174 171 173 174 174 165 156 149 152 161 160 156 152 150 149 149 150 153
288 317 313 289 263 261 266 327 303 3 3 358 340 324 322 327 318 317 303 293 294 296 292 287 290 295 294 290 289 293 295 293 298 303 301 298 299 298 295 294 295 296 294 295 294 291 287 284 282 279 270 260 237 205 197 191 194 200 200 203 204 195 186 185 182 187 190 181 176 179 178 176 176 174 173 165 155 151 147 148 150 149 151 150 150 153 160
68 357 4 322 294 285 346 74 293 333 340 338 332 314 313 319 317 311 302 295 280 271 269 274 277 284 286 282 283 284 287 293 297 294 293 295 295 291 290 292 295 299 303 302 298 291 287 285 282 278 272 263 244 201 193 192 197 204 207 208 209 203 189 180 186 189 185 160 175 175 176 177 177 175 172 169 162 158 157 155 152 150 152 155 161 158 159
66 31 25 249 278 306 304 321 337 317 320 331 324 314 313 319 315 312 308 308 311 311 305 297 304 307 305 304 307 302 300 297 295 295 294 287 285 289 293 296 301 305 302 296 290 289 288 286 285 281 273 266 248 197 193 191 197 203 207 204 200 193 186 186 185 183 178 182 181 179 178 179 178 172 166 163 164 160 154 149 147 145 143 149 151 161 163
43 23 23 320 285 282 295 305 320 323 320 319 310 302 313 317 306 304 299 299 301 304 299 303 305 299 295 301 308 302 301 298 294 292 291 292 290 288 290 294 298 298 293 287 282 281 281 282 280 277 273 267 248 198 195 191 198 203 204 200 197 196 190 188 186 176 173 175 180 180 173 168 167 167 165 162 157 153 150 145 141 136 137 130 127 136 129
360 356 324 295 281 289 323 332 316 313 308 311 317 309 310 308 302 299 299 298 301 298 294 299 302 297 299 296 295 294 293 291 291 290 288 287 287 289 292 298 302 293 283 276 273 274 275 277 278 277 275 270 254 200 197 196 206 207 203 199 197 195 193 181 173 170 167 173 176 170 166 164 165 165 163 162 161 155 150 145 146 143 144 149 152 154 155
325 323 291 268 281 354 331 304 306 298 302 307 309 303 303 304 292 294 295 298 299 296 297 297 295 294 295 291 291 290 287 285 283 284 283 283 283 285 287 291 287 287 286 285 286 285 281 278 274 270 269 275 269 196 199 199 206 202 201 200 202 192 173 166 168 170 170 165 166 168 166 164 165 164 164 162 159 155 150 147 145 144 144 147 151 159 163
327 329 339 118 360 313 305 299 296 303 306 311 308 305 308 313 308 303 302 302 299 300 301 301 298 297 296 295 291 288 289 288 286 281 278 277 277 278 277 273 267 268 269 271 274 277 280 280 274 272 275 279 255 209 196 199 198 196 200 196 189 182 171 163 167 167 167 168 167 167 167 164 166 165 161 163 163 155 149 147 148 148 153 156 160 166 165
347 339 339 342 338 330 319 307 286 298 307 308 304 301 300 294 288 285 283 289 296 296 295 290 290 290 294 295 293 289 287 286 281 278 280 278 276 271 272 270 271 271 272 269 271 270 269 268 270 279 282 281 269 220 202 200 197 200 198 186 185 176 168 171 163 163 162 166 171 172 168 166 163 161 163 158 152 148 148 149 147 150 153 157 151 152 163
321 281 283 302 300 304 309 308 314 314 308 301 294 296 296 297 296 292 290 290 287 287 288 290 291 293 294 291 288 287 289 291 289 287 285 282 280 279 275 266 265 263 263 263 263 263 264 261 265 264 266 265 251 221 211 202 202 199 188 181 175 170 168 168 161 163 166 171 169 163 159 159 159 159 154 151 150 149 148 146 144 146 143 141 145 149 171
295 289 285 285 288 282 284 286 293 297 298 298 300 299 297 294 294 291 291 291 288 290 291 291 290 290 289 288 285 284 284 281 281 285 285 285 285 284 280 278 275 271 266 263 257 260 263 263 260 263 262 258 243 214 202 199 196 192 185 178 175 170 169 162 165 168 169 166 158 157 158 159 157 150 146 145 147 149 146 145 145 147 146 146 152 165 172
298 293 292 287 286 283 280 279 279 280 282 283 284 289 292 295 295 294 293 290 290 287 287 287 287 287 285 285 286 286 282 280 277 278 283 282 285 287 288 285 281 281 279 279 272 263 263 260 258 254 255 253 230 207 197 195 190 188 174 169 166 161 161 162 161 157 158 155 158 158 157 149 142 143 145 144 144 145 144 143 147 146 145 146 149 155 207
296 293 295 293 287 283 279 277 278 282 282 282 283 288 288 289 288 288 289 289 289 288 288 289 288 285 283 281 278 277 276 274 277 285 290 295 290 283 284 294 296 295 295 286 295 321 285 287 288 269 259 244 223 202 193 181 180 173 161 165 159 159 157 155 156 153 154 150 148 145 140 141 146 148 150 150 150 147 144 142 141 140 141 144 147 146 132
296 291 289 289 291 289 284 280 280 279 282 282 280 277 282 287 291 291 289 289 288 287 286 284 281 281 283 283 280 277 284 293 293 285 283 282 293 296 293 290 289 291 286 284 298 300 295 295 295 291 276 253 222 202 180 179 168 164 162 162 158 155 153 150 147 147 148 148 148 146 148 150 147 148 147 147 144 141 139 137 137 138 141 142 142 139 137
300 293 281 284 286 286 287 287 283 278 279 285 290 289 287 285 287 288 287 286 286 287 285 285 285 286 286 285 288 296 297 292 291 293 299 301 299 292 292 292 284 280 278 294 308 302 294 290 282 273 251 228 200 184 169 167 157 155 154 150 150 147 147 146 147 145 146 144 143 146 145 147 145 145 144 145 139 135 133 134 136 137 139 142 143 146 146
301 304 302 303 297 296 293 291 289 286 283 278 286 291 295 292 290 288 287 287 287 288 286 287 287 289 289 291 297 295 298 300 301 300 300 303 304 297 292 286 285 297 312 309 302 295 293 291 285 263 247 201 170 160 159 157 152 144 144 143 143 141 143 143 143 142 143 145 146 145 143 145 143 141 137 135 135 133 133 132 132 134 135 136 141 143 144
303 306 307 303 299 299 296 298 297 293 290 290 284 282 285 286 289 290 291 293 295 294 291 287 286 288 294 295 295 300 304 303 301 299 308 310 301 298 299 297 310 317 306 303 301 299 303 303 301 302 22 120 133 139 141 143 136 132 134 134 136 138 138 140 140 142 145 148 148 147 145 142 135 133 134 134 133 132 133 131 132 134 140 142 140 139 135
307 306 302 303 301 302 299 295 292 293 290 285 284 284 282 285 291 293 294 297 298 296 294 294 296 299 301 306 307 305 303 301 302 311 314 307 298 304 308 304 319 308 312 313 312 314 320 330 343 22 45 101 109 129 129 126 121 123 123 126 128 131 133 136 137 138 140 140 141 139 140 133 119 131 134 128 127 130 130 130 127 119 106 129 136 139 139
310 309 308 305 303 303 301 299 297 294 293 293 292 295 297 296 293 297 302 305 305 304 302 306 309 308 310 310 307 304 304 305 313 315 311 304 297 288 298 303 314 313 324 327 329 334 344 343 13 32 74 90 110 111 104 105 114 116 118 119 122 123 124 125 126 127 128 127 125 124 123 118 94 106 120 113 92 99 105 116 112 122 129 106 106 128 136
306 303 302 302 302 301 300 299 298 298 298 301 304 304 304 306 312 312 313 312 307 309 322 319 313 316 316 311 307 307 311 314 321 320 319 324 328 330 335 326 324 331 337 338 346 358 1 28 43 80 85 92 90 87 91 96 99 103 106 109 111 114 117 118 119 119 119 120 114 106 119 121 112 108 117 111 109 111 117 105 110 114 119 103 126 114 120
303 301 301 301 300 301 302 302 304 304 303 303 307 311 314 315 312 314 314 309 321 330 323 319 323 321 316 315 311 308 306 312 324 331 334 343 342 347 343 339 341 347 357 14 22 26 34 48 65 68 73 74 74 76 80 83 86 89 95 99 102 105 107 109 110 111 115 117 118 114 111 101 97 103 92 111 124 116 123 120 109 110 125 129 122 134 143
301 301 300 302 303 303 301 300 299 301 305 310 310 309 314 315 318 321 317 327 332 322 324 326 326 324 325 325 321 318 313 325 3 359 358 348 346 332 341 356 352 2 21 27 38 41 53 58 64 67 69 71 73 76 81 84 88 92 94 97 99 100 101 103 104 109 111 113 114 100 88 95 104 97 94 90 108 118 121 117 118 113 104 122 136 137 136
303 304 305 304 302 299 296 297 301 308 312 310 314 319 324 326 328 325 328 330 330 328 331 337 335 341 347 351 353 351 351 350 8 7 3 357 354 355 358 9 26 34 40 40 45 47 59 62 68 70 72 73 74 78 80 83 84 90 91 95 96 99 99 98 87 86 103 103 106 103 103 108 110 95 109 109 109 114 122 124 126 116 107 121 124 126 131
308 308 307 304 299 295 296 304 312 314 313 318 320 317 322 327 330 330 333 338 337 335 344 347 352 358 1 6 4 10 6 359 4 9 1 359 1 5 10 22 32 42 46 50 53 57 60 62 62 62 63 67 70 75 77 81 82 83 87 86 80 65 70 87 80 79 96 99 101 77 84 89 103 111 113 101 89 109 117 125 127 129 132 135 140 142 144
309 304 300 293 290 298 308 313 318 320 323 322 323 325 332 333 331 331 337 341 342 347 357 360 2 5 7 11 16 12 14 11 22 16 357 9 14 18 19 25 33 37 48 52 54 56 58 61 62 63 63 64 64 66 71 79 84 88 80 69 69 84 86 83 86 75 80 93 101 103 106 107 99 89 87 107 100 103 116 116 124 130 137 135 133 139 148
306 299 294 305 315 319 326 328 328 327 327 326 331 335 338 338 339 345 344 346 353 353 0 2 5 5 10 9 11 13 13 15 16 17 22 23 26 27 32 35 42 43 46 49 51 51 51 55 60 63 66 69 74 75 77 74 66 55 66 75 78 72 85 88 88 90 93 97 98 101 103 104 89 103 110 110 112 114 115 118 119 124 127 129 137 145 155
306 303 306 315 327 330 332 329 326 330 329 334 334 342 344 346 345 347 348 356 352 354 358 1 12 14 15 18 19 19 20 19 24 24 28 28 34 41 42 45 46 48 52 52 54 54 56 62 61 57 66 69 60 44 48 58 67 66 62 61 76 72 70 86 86 69 86 96 99 101 105 109 109 110 99 105 118 119 121 124 128 135 139 143 145 155 159
313 304 299 327 329 326 327 328 329 338 341 341 336 346 347 353 348 348 351 3 357 349 355 358 11 13 17 17 19 21 19 22 24 28 33 36 38 41 41 43 48 48 50 55 56 57 60 60 60 67 72 57 41 60 73 74 67 75 75 76 77 68 82 85 88 93 90 97 98 104 103 110 113 110 104 100 120 126 129 132 126 123 131 134 132 144 145